DW4805 Weather Reports


time (UTC)temp
C
wind
direction
speed
KPH
gust
KPH
rain 1hr
cm
rain 24hr
cm
rain mn
cm
humidity
%
barometer
mb
20260506200058 15 318 8.0 17.7 0.00 0.25 0.25 73 1014.9
20260506194604 15 305 6.4 14.5 0.00 0.25 0.25 73 1014.8
20260506193053 15 282 6.4 12.9 0.00 0.25 0.25 74 1015.1
20260506191553 13 315 8.0 14.5 0.00 0.25 0.25 76 1015.3
20260506190054 13 290 6.4 14.5 0.00 0.25 0.25 77 1015.4
20260506184605 13 290 3.2 9.7 0.00 0.25 0.25 79 1015.6
20260506183101 13 289 3.2 14.5 0.00 0.25 0.25 79 1015.7
20260506181554 12 298 9.7 22.5 0.00 0.25 0.25 79 1015.3
20260506180055 12 294 14.5 25.7 0.00 0.25 0.25 79 1014.3
20260506174551 12 327 11.3 27.4 0.00 0.25 0.25 81 1014.3
20260506173054 12 306 11.3 19.3 0.00 0.25 0.25 83 1014.6
20260506171558 12 288 3.2 16.1 0.00 0.25 0.25 84 1015.2
20260506170112 11 319 9.7 20.9 0.00 0.25 0.25 84 1015.0
20260506164553 11 282 9.7 17.7 0.00 0.25 0.25 86 1014.8
20260506163110 11 283 6.4 19.3 0.00 0.25 0.25 87 1015.1
20260506161553 11 304 11.3 22.5 0.00 0.25 0.25 86 1014.8
20260506160056 11 280 8.0 19.3 0.00 0.25 0.25 86 1014.8
20260506154555 11 298 12.9 22.5 0.05 0.25 0.25 86 1014.4
20260506153057 11 294 14.5 22.5 0.25 0.25 0.25 89 1013.9
20260506151555 11 300 8.0 19.3 0.25 0.25 0.25 89 1014.5
20260506150053 11 286 3.2 17.7 0.25 0.25 0.25 88 1015.9
20260506144606 11 286 8.0 14.5 0.20 0.20 0.20 86 1015.3
20260506143057 11 338 9.7 19.3 0.00 0.00 0.00 82 1016.1
20260506141554 11 317 8.0 25.7 0.00 0.00 0.00 83 1014.9
20260506140054 11 311 11.3 20.9 0.00 0.00 0.00 82 1014.5
20260506134556 11 288 8.0 20.9 0.00 0.00 0.00 81 1015.1
20260506133054 11 305 11.3 22.5 0.00 0.00 0.00 80 1014.3
20260506131552 11 311 11.3 22.5 0.00 0.00 0.00 80 1014.0
20260506130059 11 293 12.9 22.5 0.00 0.00 0.00 78 1013.9
20260506124552 12 309 16.1 30.6 0.00 0.00 0.00 76 1013.4
20260506123055 12 307 9.7 20.9 0.00 0.00 0.00 76 1013.2
20260506121554 12 302 11.3 24.1 0.00 0.00 0.00 75 1013.3
20260506120053 12 352 12.9 22.5 0.00 0.00 0.00 75 1013.0
20260506114552 13 296 9.7 19.3 0.00 0.00 0.00 75 1013.1
20260506113052 13 310 11.3 20.9 0.00 0.00 0.00 74 1012.7
20260506111551 13 281 12.9 24.1 0.00 0.00 0.00 75 1012.2
20260506110053 13 311 11.3 19.3 0.00 0.00 0.00 75 1012.1
20260506104553 13 293 11.3 19.3 0.00 0.00 0.00 75 1012.0
20260506103054 13 313 6.4 17.7 0.00 0.00 0.00 75 1011.7
20260506101551 13 294 8.0 17.7 0.00 0.00 0.00 75 1011.4
20260506100052 13 289 11.3 19.3 0.00 0.00 0.00 76 1011.2
20260506094601 13 287 9.7 17.7 0.00 0.00 0.00 76 1011.0
20260506093052 14 273 8.0 17.7 0.00 0.00 0.00 76 1011.0
20260506091550 14 290 11.3 20.9 0.00 0.00 0.00 76 1010.9
20260506090056 14 298 9.7 17.7 0.00 0.00 0.00 76 1011.0
20260506084612 14 289 8.0 22.5 0.00 0.00 0.00 76 1010.8
20260506083056 15 305 4.8 20.9 0.00 0.00 0.00 77 1010.6
20260506081551 15 292 9.7 17.7 0.00 0.00 0.00 77 1010.5
20260506073059 15 286 6.4 14.5 0.00 0.00 0.00 77 1010.1
20260506071553 15 284 3.2 14.5 0.00 0.00 0.00 78 1010.2
20260506061601 16 292 6.4 16.1 0.00 0.00 0.00 77 1010.1
20260506050109 17 315 14.5 24.1 0.00 0.00 0.00 75 1010.3
20260506044555 17 299 8.0 16.1 0.00 0.00 0.00 75 1010.0
20260506043105 18 319 11.3 19.3 0.00 0.00 0.00 74 1009.8
20260506041600 18 317 11.3 22.5 0.00 0.00 0.00 72 1010.0
20260506040105 18 281 4.8 22.5 0.00 0.00 0.00 72 1009.9
20260506034605 19 302 11.3 22.5 0.00 0.00 0.00 71 1009.6
20260506033103 19 282 11.3 20.9 0.00 0.00 0.00 70 1009.3
20260506031559 20 337 9.7 17.7 0.00 0.00 0.00 70 1008.8
20260506030056 20 323 11.3 19.3 0.00 0.00 0.00 69 1008.3
20260506024557 20 325 9.7 24.1 0.00 0.00 0.00 69 1008.3
20260506023051 21 281 8.0 22.5 0.00 0.00 0.00 69 1007.9
20260506021602 21 317 12.9 27.4 0.00 0.00 0.00 68 1007.9
20260506020050 21 290 11.3 19.3 0.00 0.00 0.00 67 1007.4
20260506014553 22 286 11.3 24.1 0.00 0.00 0.00 66 1006.9
20260506013103 22 292 8.0 14.5 0.00 0.00 0.00 66 1006.6
20260506011603 22 324 8.0 16.1 0.00 0.00 0.00 65 1006.1
20260506010053 23 300 6.4 16.1 0.00 0.00 0.00 65 1005.9
20260506004555 23 285 11.3 25.7 0.00 0.00 0.00 63 1005.8
20260506003055 23 306 8.0 19.3 0.00 0.00 0.00 60 1005.4
20260506001555 24 290 4.8 19.3 0.00 0.00 0.00 61 1005.6
20260506000054 25 294 6.4 16.1 0.00 0.00 0.00 60 1005.6
20260505234605 25 286 9.7 22.5 0.00 0.00 0.00 60 1005.3
20260505233051 26 286 9.7 20.9 0.00 0.00 0.00 60 1004.9
20260505231606 27 315 12.9 22.5 0.00 0.00 0.00 59 1004.7
20260505230054 28 321 6.4 20.9 0.00 0.00 0.00 51 1004.5
20260505224556 28 290 9.7 22.5 0.00 0.00 0.00 49 1004.4
20260505223104 30 313 8.0 14.5 0.00 0.00 0.00 49 1004.2
20260505221600 30 282 3.2 6.4 0.00 0.00 0.00 51 1004.0
20260505220056 30 296 1.6 6.4 0.00 0.00 0.00 52 1003.8
20260505214616 31 295 1.6 4.8 0.00 0.00 0.00 49 1004.0
20260505213102 31 286 0.0 3.2 0.00 0.00 0.00 48 1004.0
20260505211603 32 318 0.0 4.8 0.00 0.00 0.00 47 1004.0
20260505210052 32 173 4.8 11.3 0.00 0.00 0.00 45 1004.3
20260505204551 32 149 3.2 11.3 0.00 0.00 0.00 47 1004.6
20260505203054 32 141 3.2 12.9 0.00 0.00 0.00 46 1004.6
20260505201557 32 283 1.6 11.3 0.00 0.00 0.00 47 1004.9